Time,TemperatureF,DewpointF,PressureIn,WindDirection,WindDirectionDegrees,WindSpeedMPH,WindSpeedGustMPH,Humidity,HourlyPrecipIn,Conditions,Clouds,dailyrainin,SoftwareType,DateUTC
2013-08-14 00:00:00,82.6,75.8,30.03,ESE,118,0.0,3.0,80,0.00,,---,0.02,VWS V15.00,2013-08-14 04:00:00,
2013-08-14 00:01:00,80.1,75.5,30.04,East,95,0.0,0.0,86,0.00,,---,0.02,VWS V14.01,2013-08-14 04:01:00,
2013-08-14 00:04:00,80.0,75.8,30.04,East,95,0.0,0.0,87,0.00,,---,0.00,VWS V14.01,2013-08-14 04:04:00,
2013-08-14 00:06:00,80.1,75.9,30.04,East,94,0.0,0.0,87,0.00,,---,0.00,VWS V14.01,2013-08-14 04:06:00,
2013-08-14 00:08:00,80.1,75.9,30.04,East,95,0.0,0.0,87,0.00,,---,0.00,VWS V14.01,2013-08-14 04:08:00,
2013-08-14 00:13:00,80.0,75.8,30.04,East,95,0.0,0.0,87,0.00,,---,0.00,VWS V14.01,2013-08-14 04:13:00,
2013-08-14 00:15:00,82.4,75.6,30.03,SSE,154,0.0,3.0,80,0.00,,---,0.02,VWS V15.00,2013-08-14 04:15:00,
2013-08-14 00:18:00,79.9,75.7,30.04,East,94,0.0,0.0,87,0.00,,---,0.00,VWS V14.01,2013-08-14 04:18:00,
2013-08-14 00:23:00,79.7,76.2,30.03,East,94,0.0,0.0,89,0.00,,---,0.00,VWS V14.01,2013-08-14 04:23:00,
2013-08-14 00:28:00,79.6,76.1,30.03,East,94,0.0,0.0,89,0.00,,---,0.00,VWS V14.01,2013-08-14 04:28:00,
2013-08-14 00:30:00,82.1,76.1,30.03,SE,125,0.0,2.0,82,0.00,,---,0.02,VWS V15.00,2013-08-14 04:30:00,
2013-08-14 00:33:00,79.3,75.8,30.03,East,95,0.0,0.0,89,0.00,,---,0.00,VWS V14.01,2013-08-14 04:33:00,
2013-08-14 00:38:00,79.1,75.9,30.03,East,94,0.0,0.0,90,0.00,,---,0.00,VWS V14.01,2013-08-14 04:38:00,
2013-08-14 00:43:00,79.0,75.8,30.03,East,95,0.0,0.0,90,0.00,,---,0.00,VWS V14.01,2013-08-14 04:43:00,
2013-08-14 00:45:00,81.1,75.4,30.04,East,95,0.0,1.0,83,0.00,,---,0.02,VWS V15.00,2013-08-14 04:45:00,
2013-08-14 00:48:00,78.9,75.7,30.03,East,95,0.0,0.0,90,0.00,,---,0.00,VWS V14.01,2013-08-14 04:48:00,
2013-08-14 00:53:00,78.8,75.9,30.02,East,95,0.0,0.0,91,0.00,,---,0.00,VWS V14.01,2013-08-14 04:53:00,
2013-08-14 00:58:00,78.6,75.8,30.02,East,95,0.0,0.0,91,0.00,,---,0.00,VWS V14.01,2013-08-14 04:58:00,
2013-08-14 01:00:00,80.1,75.5,30.04,East,95,0.0,0.0,86,0.00,,---,0.00,VWS V15.00,2013-08-14 05:00:00,
2013-08-14 01:03:00,78.6,75.8,30.02,East,94,0.0,0.0,91,0.00,,---,0.00,VWS V14.01,2013-08-14 05:03:00,
2013-08-14 01:08:00,78.6,76.1,30.02,East,95,0.0,0.0,92,0.00,,---,0.00,VWS V14.01,2013-08-14 05:08:00,
2013-08-14 01:13:00,78.5,75.7,30.02,East,95,0.0,0.0,91,0.00,,---,0.00,VWS V14.01,2013-08-14 05:13:00,
2013-08-14 01:15:00,79.9,75.7,30.04,East,95,0.0,0.0,87,0.00,,---,0.00,VWS V15.00,2013-08-14 05:15:00,
2013-08-14 01:18:00,78.4,75.6,30.02,East,94,0.0,0.0,91,0.00,,---,0.00,VWS V14.01,2013-08-14 05:18:00,
2013-08-14 01:23:00,78.4,76.2,30.02,East,95,0.0,0.0,93,0.00,,---,0.00,VWS V14.01,2013-08-14 05:23:00,
2013-08-14 01:28:00,78.2,75.7,30.02,East,94,0.0,0.0,92,0.00,,---,0.00,VWS V14.01,2013-08-14 05:28:00,
2013-08-14 01:30:00,79.5,76.0,30.03,East,95,0.0,0.0,89,0.00,,---,0.00,VWS V15.00,2013-08-14 05:30:00,
2013-08-14 01:33:00,78.1,75.6,30.02,East,95,0.0,0.0,92,0.00,,---,0.00,VWS V14.01,2013-08-14 05:33:00,
2013-08-14 01:38:00,77.9,75.7,30.01,East,95,0.0,0.0,93,0.00,,---,0.00,VWS V14.01,2013-08-14 05:38:00,
2013-08-14 01:44:00,77.9,76.0,30.01,East,95,0.0,0.0,94,0.00,,---,0.00,VWS V14.01,2013-08-14 05:44:00,
2013-08-14 01:45:00,79.0,75.8,30.03,East,95,0.0,0.0,90,0.00,,---,0.00,VWS V15.00,2013-08-14 05:45:00,
2013-08-14 01:49:00,77.9,76.0,30.01,East,94,0.0,0.0,94,0.00,,---,0.00,VWS V14.01,2013-08-14 05:49:00,
2013-08-14 01:54:00,78.1,76.2,30.01,East,95,0.0,0.0,94,0.00,,---,0.00,VWS V14.01,2013-08-14 05:54:00,
2013-08-14 01:59:00,78.4,76.2,30.01,East,95,0.0,0.0,93,0.00,,---,0.00,VWS V14.01,2013-08-14 05:59:00,
2013-08-14 02:00:00,78.6,75.8,30.02,East,94,0.0,0.0,91,0.00,,---,0.00,VWS V15.00,2013-08-14 06:00:00,
2013-08-14 02:04:00,78.6,76.1,30.01,East,94,0.0,0.0,92,0.00,,---,0.00,VWS V14.01,2013-08-14 06:04:00,
2013-08-14 02:09:00,78.4,75.9,30.00,East,94,0.0,0.0,92,0.00,,---,0.00,VWS V14.01,2013-08-14 06:09:00,
2013-08-14 02:14:00,78.4,76.2,30.00,East,95,0.0,0.0,93,0.00,,---,0.00,VWS V14.01,2013-08-14 06:14:00,
2013-08-14 02:15:00,78.5,75.7,30.02,East,94,0.0,0.0,91,0.00,,---,0.00,VWS V15.00,2013-08-14 06:15:00,
2013-08-14 02:19:00,78.2,76.0,30.00,East,95,0.0,0.0,93,0.00,,---,0.00,VWS V14.01,2013-08-14 06:19:00,
2013-08-14 02:24:00,78.1,75.9,30.00,East,95,0.0,0.0,93,0.00,,---,0.00,VWS V14.01,2013-08-14 06:24:00,
2013-08-14 02:29:00,78.1,75.9,30.00,East,95,0.0,0.0,93,0.00,,---,0.00,VWS V14.01,2013-08-14 06:29:00,
2013-08-14 02:30:00,78.1,75.6,30.02,East,95,0.0,0.0,92,0.00,,---,0.00,VWS V15.00,2013-08-14 06:30:00,
2013-08-14 02:34:00,78.0,75.8,30.00,East,95,0.0,0.0,93,0.00,,---,0.00,VWS V14.01,2013-08-14 06:34:00,
2013-08-14 02:39:00,77.8,75.6,29.99,East,95,0.0,0.0,93,0.00,,---,0.00,VWS V14.01,2013-08-14 06:39:00,
2013-08-14 02:44:00,77.9,76.0,29.99,East,95,0.0,0.0,94,0.00,,---,0.00,VWS V14.01,2013-08-14 06:44:00,
2013-08-14 02:45:00,77.9,75.7,30.01,East,94,0.0,0.0,93,0.00,,---,0.00,VWS V15.00,2013-08-14 06:45:00,
2013-08-14 02:49:00,78.0,76.1,29.99,East,95,0.0,0.0,94,0.00,,---,0.00,VWS V14.01,2013-08-14 06:49:00,
2013-08-14 02:54:00,77.9,76.0,29.99,East,95,0.0,0.0,94,0.00,,---,0.00,VWS V14.01,2013-08-14 06:54:00,
2013-08-14 02:59:00,77.8,76.3,29.99,East,95,0.0,0.0,95,0.00,,---,0.00,VWS V14.01,2013-08-14 06:59:00,
2013-08-14 03:00:00,78.5,76.0,30.01,East,95,0.0,0.0,92,0.00,,---,0.00,VWS V15.00,2013-08-14 07:00:00,
2013-08-14 03:04:00,77.7,76.2,29.99,East,95,0.0,0.0,95,0.00,,---,0.00,VWS V14.01,2013-08-14 07:04:00,
2013-08-14 03:09:00,77.6,76.1,29.99,East,95,0.0,0.0,95,0.00,,---,0.00,VWS V14.01,2013-08-14 07:09:00,
2013-08-14 03:14:00,77.4,75.9,29.98,East,94,0.0,0.0,95,0.00,,---,0.00,VWS V14.01,2013-08-14 07:14:00,
2013-08-14 03:15:00,78.3,76.1,30.00,East,94,0.0,0.0,93,0.00,,---,0.00,VWS V15.00,2013-08-14 07:15:00,
2013-08-14 03:19:00,77.4,75.9,29.99,East,95,0.0,0.0,95,0.00,,---,0.00,VWS V14.01,2013-08-14 07:19:00,
2013-08-14 03:24:00,77.3,75.8,29.98,East,95,0.0,0.0,95,0.00,,---,0.00,VWS V14.01,2013-08-14 07:24:00,
2013-08-14 03:29:00,77.3,75.8,29.98,East,95,0.0,0.0,95,0.00,,---,0.00,VWS V14.01,2013-08-14 07:29:00,
2013-08-14 03:30:00,78.1,75.9,30.00,East,94,0.0,0.0,93,0.00,,---,0.00,VWS V15.00,2013-08-14 07:30:00,
2013-08-14 03:34:00,77.4,76.2,29.98,East,95,0.0,0.0,96,0.00,,---,0.00,VWS V14.01,2013-08-14 07:34:00,
2013-08-14 03:39:00,77.4,76.2,29.98,East,95,0.0,0.0,96,0.00,,---,0.00,VWS V14.01,2013-08-14 07:39:00,
2013-08-14 03:44:00,77.5,76.3,29.98,East,94,0.0,0.0,96,0.00,,---,0.00,VWS V14.01,2013-08-14 07:44:00,
2013-08-14 03:45:00,78.0,76.1,29.99,East,95,0.0,0.0,94,0.00,,---,0.00,VWS V15.00,2013-08-14 07:45:00,
2013-08-14 03:49:00,77.5,76.0,29.98,East,95,0.0,0.0,95,0.00,,---,0.00,VWS V14.01,2013-08-14 07:49:00,
2013-08-14 03:54:00,77.5,76.3,29.98,East,95,0.0,0.0,96,0.00,,---,0.00,VWS V14.01,2013-08-14 07:54:00,
2013-08-14 03:59:00,77.5,76.6,29.98,East,95,0.0,0.0,97,0.00,,---,0.00,VWS V14.01,2013-08-14 07:59:00,
2013-08-14 04:00:00,77.8,76.3,29.99,East,94,0.0,0.0,95,0.00,,---,0.00,VWS V15.00,2013-08-14 08:00:00,
2013-08-14 04:04:00,77.5,76.3,29.98,East,95,0.0,0.0,96,0.00,,---,0.00,VWS V14.01,2013-08-14 08:04:00,
2013-08-14 04:09:00,77.4,76.2,29.98,East,95,0.0,0.0,96,0.00,,---,0.00,VWS V14.01,2013-08-14 08:09:00,
2013-08-14 04:14:00,77.3,76.1,29.98,East,95,0.0,0.0,96,0.00,,---,0.00,VWS V14.01,2013-08-14 08:14:00,
2013-08-14 04:15:00,77.4,75.9,29.98,East,94,0.0,0.0,95,0.00,,---,0.00,VWS V15.00,2013-08-14 08:15:00,
2013-08-14 04:19:00,77.2,76.0,29.98,East,95,0.0,0.0,96,0.00,,---,0.00,VWS V14.01,2013-08-14 08:19:00,
2013-08-14 04:24:00,77.2,76.0,29.98,East,95,0.0,0.0,96,0.00,,---,0.00,VWS V14.01,2013-08-14 08:24:00,
2013-08-14 04:29:00,77.3,76.1,29.98,East,94,0.0,0.0,96,0.00,,---,0.00,VWS V14.01,2013-08-14 08:29:00,
2013-08-14 04:30:00,77.4,76.2,29.98,East,95,0.0,0.0,96,0.00,,---,0.00,VWS V15.00,2013-08-14 08:30:00,
2013-08-14 04:35:00,77.2,76.0,29.98,East,95,0.0,0.0,96,0.00,,---,0.00,VWS V14.01,2013-08-14 08:35:00,
2013-08-14 04:40:00,77.2,76.3,29.98,East,95,0.0,0.0,97,0.00,,---,0.00,VWS V14.01,2013-08-14 08:40:00,
2013-08-14 04:45:00,77.1,75.9,29.98,East,95,0.0,0.0,96,0.00,,---,0.00,VWS V14.01,2013-08-14 08:45:00,
2013-08-14 04:50:00,77.0,75.8,29.98,East,95,0.0,0.0,96,0.00,,---,0.00,VWS V14.01,2013-08-14 08:50:00,
2013-08-14 04:55:00,76.9,75.7,29.98,East,95,0.0,0.0,96,0.00,,---,0.00,VWS V14.01,2013-08-14 08:55:00,
2013-08-14 05:00:00,76.8,75.6,29.97,East,95,0.0,0.0,96,0.00,,---,0.00,VWS V14.01,2013-08-14 09:00:00,
2013-08-14 05:05:00,76.8,75.9,29.97,East,95,0.0,0.0,97,0.00,,---,0.00,VWS V14.01,2013-08-14 09:05:00,
2013-08-14 05:10:00,76.7,75.8,29.97,East,94,0.0,0.0,97,0.00,,---,0.00,VWS V14.01,2013-08-14 09:10:00,
2013-08-14 05:15:00,76.7,75.8,29.98,East,95,0.0,0.0,97,0.00,,---,0.00,VWS V14.01,2013-08-14 09:15:00,
2013-08-14 05:20:00,76.7,75.8,29.97,East,95,0.0,0.0,97,0.00,,---,0.00,VWS V14.01,2013-08-14 09:20:00,
2013-08-14 05:25:00,76.7,75.8,29.98,East,95,0.0,0.0,97,0.00,,---,0.00,VWS V14.01,2013-08-14 09:25:00,
2013-08-14 05:30:00,76.7,75.8,29.97,East,94,0.0,0.0,97,0.00,,---,0.00,VWS V14.01,2013-08-14 09:30:00,
2013-08-14 05:35:00,76.7,75.8,29.97,East,95,0.0,0.0,97,0.00,,---,0.00,VWS V14.01,2013-08-14 09:35:00,
2013-08-14 05:40:00,76.7,75.8,29.98,East,95,0.0,0.0,97,0.00,,---,0.00,VWS V14.01,2013-08-14 09:40:00,
2013-08-14 05:45:00,76.8,75.9,29.98,East,95,0.0,0.0,97,0.00,,---,0.00,VWS V14.01,2013-08-14 09:45:00,
2013-08-14 05:50:00,76.6,75.7,29.97,East,94,0.0,0.0,97,0.00,,---,0.00,VWS V14.01,2013-08-14 09:50:00,
2013-08-14 05:55:00,76.4,75.5,29.97,East,95,0.0,0.0,97,0.00,,---,0.00,VWS V14.01,2013-08-14 09:55:00,
2013-08-14 06:00:00,76.5,75.6,29.97,East,95,0.0,0.0,97,0.00,,---,0.00,VWS V14.01,2013-08-14 10:00:00,
2013-08-14 06:05:00,76.6,76.0,29.97,East,95,0.0,0.0,98,0.00,,---,0.00,VWS V14.01,2013-08-14 10:05:00,
2013-08-14 06:10:00,76.6,76.0,29.98,East,95,0.0,0.0,98,0.00,,---,0.00,VWS V14.01,2013-08-14 10:10:00,
2013-08-14 06:15:00,76.6,76.0,29.98,East,95,0.0,0.0,98,0.00,,---,0.00,VWS V14.01,2013-08-14 10:15:00,
2013-08-14 06:20:00,76.6,76.0,29.98,East,95,0.0,0.0,98,0.00,,---,0.00,VWS V14.01,2013-08-14 10:20:00,
2013-08-14 06:25:00,76.5,75.9,29.97,East,95,0.0,0.0,98,0.00,,---,0.00,VWS V14.01,2013-08-14 10:25:00,
2013-08-14 06:30:00,76.3,75.4,29.98,East,95,0.0,0.0,97,0.00,,---,0.00,VWS V14.01,2013-08-14 10:30:00,
2013-08-14 06:35:00,76.4,75.8,29.97,East,95,0.0,0.0,98,0.00,,---,0.00,VWS V14.01,2013-08-14 10:35:00,
2013-08-14 06:40:00,76.6,76.0,29.97,East,95,0.0,1.0,98,0.00,,---,0.00,VWS V14.01,2013-08-14 10:40:00,
2013-08-14 06:45:00,76.7,76.1,29.98,East,95,0.0,1.0,98,0.00,,---,0.00,VWS V14.01,2013-08-14 10:45:00,
2013-08-14 06:50:00,76.7,75.8,29.98,East,95,0.0,0.0,97,0.00,,---,0.00,VWS V14.01,2013-08-14 10:50:00,
2013-08-14 06:55:00,76.7,76.1,29.98,East,95,0.0,0.0,98,0.00,,---,0.00,VWS V14.01,2013-08-14 10:55:00,
2013-08-14 07:00:00,76.7,76.1,29.98,East,94,0.0,0.0,98,0.00,,---,0.00,VWS V14.01,2013-08-14 11:00:00,
2013-08-14 07:05:00,76.6,76.0,29.98,East,95,0.0,0.0,98,0.00,,---,0.00,VWS V14.01,2013-08-14 11:05:00,
2013-08-14 07:11:00,76.5,75.9,29.98,East,95,0.0,0.0,98,0.00,,---,0.00,VWS V14.01,2013-08-14 11:11:00,
2013-08-14 07:15:00,76.6,76.0,29.98,East,95,0.0,0.0,98,0.00,,---,0.00,VWS V15.00,2013-08-14 11:15:00,
2013-08-14 07:16:00,76.6,76.0,29.98,East,95,0.0,0.0,98,0.00,,---,0.00,VWS V14.01,2013-08-14 11:16:00,
2013-08-14 07:21:00,76.7,76.1,29.99,East,95,0.0,0.0,98,0.00,,---,0.00,VWS V14.01,2013-08-14 11:21:00,
2013-08-14 07:26:00,76.8,76.2,29.99,East,94,0.0,0.0,98,0.00,,---,0.00,VWS V14.01,2013-08-14 11:26:00,
2013-08-14 07:30:00,76.3,75.7,29.98,East,95,0.0,0.0,98,0.00,,---,0.00,VWS V15.00,2013-08-14 11:30:00,
2013-08-14 07:31:00,77.1,76.5,29.99,East,94,0.0,0.0,98,0.00,,---,0.00,VWS V14.01,2013-08-14 11:31:00,
2013-08-14 07:36:00,77.4,76.8,29.99,East,95,0.0,0.0,98,0.00,,---,0.00,VWS V14.01,2013-08-14 11:36:00,
2013-08-14 07:41:00,77.9,77.3,29.99,East,95,0.0,0.0,98,0.00,,---,0.00,VWS V14.01,2013-08-14 11:41:00,
2013-08-14 07:45:00,76.8,76.2,29.98,East,95,0.0,1.0,98,0.00,,---,0.00,VWS V15.00,2013-08-14 11:45:00,
2013-08-14 07:46:00,78.3,77.7,29.99,East,94,0.0,0.0,98,0.00,,---,0.00,VWS V14.01,2013-08-14 11:46:00,
2013-08-14 07:51:00,78.7,77.8,29.99,East,94,0.0,0.0,97,0.00,,---,0.00,VWS V14.01,2013-08-14 11:51:00,
2013-08-14 07:56:00,79.7,78.8,29.99,East,94,0.0,0.0,97,0.00,,---,0.00,VWS V14.01,2013-08-14 11:56:00,
2013-08-14 08:00:00,76.7,76.1,29.98,East,95,0.0,0.0,98,0.00,,---,0.00,VWS V15.00,2013-08-14 12:00:00,
2013-08-14 08:01:00,80.4,78.8,29.99,East,94,0.0,0.0,95,0.00,,---,0.00,VWS V14.01,2013-08-14 12:01:00,
2013-08-14 08:06:00,80.8,78.3,29.99,NNE,23,0.0,2.0,92,0.00,,---,0.00,VWS V14.01,2013-08-14 12:06:00,
2013-08-14 08:11:00,81.2,78.3,30.00,NNE,23,0.0,2.0,91,0.00,,---,0.00,VWS V14.01,2013-08-14 12:11:00,
2013-08-14 08:15:00,76.6,76.0,29.98,East,95,0.0,0.0,98,0.00,,---,0.00,VWS V15.00,2013-08-14 12:15:00,
2013-08-14 08:16:00,81.6,78.4,29.99,NNW,335,0.0,2.0,90,0.00,,---,0.00,VWS V14.01,2013-08-14 12:16:00,
2013-08-14 08:21:00,82.0,78.4,29.99,NNW,339,1.0,1.0,89,0.00,,---,0.00,VWS V14.01,2013-08-14 12:21:00,
2013-08-14 08:26:00,82.4,78.1,29.99,NNW,340,0.0,1.0,87,0.00,,---,0.00,VWS V14.01,2013-08-14 12:26:00,
2013-08-14 08:30:00,77.1,76.5,29.99,East,94,0.0,0.0,98,0.00,,---,0.00,VWS V15.00,2013-08-14 12:30:00,
2013-08-14 08:31:00,82.8,78.2,29.99,North,352,0.0,0.0,86,0.00,,---,0.00,VWS V14.01,2013-08-14 12:31:00,
2013-08-14 08:36:00,83.4,78.1,29.99,WNW,291,0.0,2.0,84,0.00,,---,0.00,VWS V14.01,2013-08-14 12:36:00,
2013-08-14 08:41:00,84.5,78.0,29.99,SW,218,0.0,2.0,81,0.00,,---,0.00,VWS V14.01,2013-08-14 12:41:00,
2013-08-14 08:45:00,78.3,77.7,29.99,East,94,0.0,0.0,98,0.00,,---,0.00,VWS V15.00,2013-08-14 12:45:00,
2013-08-14 08:46:00,85.6,78.3,29.99,NW,317,0.0,0.0,79,0.00,,---,0.00,VWS V14.01,2013-08-14 12:46:00,
2013-08-14 08:51:00,86.2,78.2,29.99,NW,317,0.0,0.0,77,0.00,,---,0.00,VWS V14.01,2013-08-14 12:51:00,
2013-08-14 08:56:00,85.7,77.7,29.99,NW,318,0.0,1.0,77,0.00,,---,0.00,VWS V14.01,2013-08-14 12:56:00,
2013-08-14 09:00:00,80.4,78.8,29.99,East,95,0.0,0.0,95,0.00,,---,0.00,VWS V15.00,2013-08-14 13:00:00,
2013-08-14 09:01:00,85.3,78.1,29.99,East,92,0.0,0.0,79,0.00,,---,0.00,VWS V14.01,2013-08-14 13:01:00,
2013-08-14 09:06:00,85.5,78.2,29.99,East,92,0.0,0.0,79,0.00,,---,0.00,VWS V14.01,2013-08-14 13:06:00,
2013-08-14 09:11:00,85.9,76.7,29.99,SE,145,1.0,3.0,74,0.00,,---,0.00,VWS V14.01,2013-08-14 13:11:00,
2013-08-14 09:15:00,81.6,78.4,29.99,NNW,335,0.0,2.0,90,0.00,,---,0.00,VWS V15.00,2013-08-14 13:15:00,
2013-08-14 09:16:00,86.1,74.8,29.99,ESE,117,1.0,3.0,69,0.00,,---,0.00,VWS V14.01,2013-08-14 13:16:00,
2013-08-14 09:21:00,86.5,76.0,29.99,SSW,210,2.0,4.0,71,0.00,,---,0.00,VWS V14.01,2013-08-14 13:21:00,
2013-08-14 09:26:00,87.2,75.8,29.99,South,181,1.0,4.0,69,0.00,,---,0.00,VWS V14.01,2013-08-14 13:26:00,
2013-08-14 09:30:00,82.8,78.2,29.99,North,352,0.0,1.0,86,0.00,,---,0.00,VWS V15.00,2013-08-14 13:30:00,
2013-08-14 09:31:00,87.5,75.6,29.99,East,99,1.0,2.0,68,0.00,,---,0.00,VWS V14.01,2013-08-14 13:31:00,
2013-08-14 09:36:00,87.8,75.0,29.99,SE,127,0.0,4.0,66,0.00,,---,0.00,VWS V14.01,2013-08-14 13:36:00,
2013-08-14 09:42:00,88.4,74.2,29.99,East,89,1.0,4.0,63,0.00,,---,0.00,VWS V14.01,2013-08-14 13:42:00,
2013-08-14 09:45:00,85.6,78.3,29.99,NW,318,0.0,2.0,79,0.00,,---,0.00,VWS V15.00,2013-08-14 13:45:00,
2013-08-14 09:47:00,88.6,75.3,29.99,East,96,0.0,1.0,65,0.00,,---,0.00,VWS V14.01,2013-08-14 13:47:00,
2013-08-14 09:52:00,89.2,74.5,29.99,SE,141,3.0,3.0,62,0.00,,---,0.00,VWS V14.01,2013-08-14 13:52:00,
2013-08-14 09:57:00,89.3,74.6,29.99,SE,135,1.0,3.0,62,0.00,,---,0.00,VWS V14.01,2013-08-14 13:57:00,
2013-08-14 10:00:00,85.3,78.1,29.99,East,92,0.0,1.0,79,0.00,,---,0.00,VWS V15.00,2013-08-14 14:00:00,
2013-08-14 10:02:00,89.5,74.8,29.99,North,10,2.0,2.0,62,0.00,,---,0.00,VWS V14.01,2013-08-14 14:02:00,
2013-08-14 10:07:00,89.7,75.4,29.99,SSE,158,0.0,2.0,63,0.00,,---,0.00,VWS V14.01,2013-08-14 14:07:00,
2013-08-14 10:12:00,90.4,76.1,29.99,SE,134,0.0,3.0,63,0.00,,---,0.00,VWS V14.01,2013-08-14 14:12:00,
2013-08-14 10:15:00,86.1,75.2,29.99,ESE,119,3.0,5.0,70,0.00,,---,0.00,VWS V15.00,2013-08-14 14:15:00,
2013-08-14 10:17:00,90.6,74.8,29.99,SW,233,0.0,2.0,60,0.00,,---,0.00,VWS V14.01,2013-08-14 14:17:00,
2013-08-14 10:22:00,90.6,76.3,29.99,West,259,0.0,3.0,63,0.00,,---,0.00,VWS V14.01,2013-08-14 14:22:00,
2013-08-14 10:27:00,90.1,75.8,29.99,NNW,345,0.0,3.0,63,0.00,,---,0.00,VWS V14.01,2013-08-14 14:27:00,
2013-08-14 10:30:00,87.4,75.6,29.99,ESE,116,1.0,6.0,68,0.00,,---,0.00,VWS V15.00,2013-08-14 14:30:00,
2013-08-14 10:32:00,89.6,74.9,29.99,West,280,2.0,3.0,62,0.00,,---,0.00,VWS V14.01,2013-08-14 14:32:00,
2013-08-14 10:37:00,89.3,76.0,29.99,West,275,2.0,3.0,65,0.00,,---,0.00,VWS V14.01,2013-08-14 14:37:00,
2013-08-14 10:42:00,89.0,74.8,30.00,NW,315,1.0,3.0,63,0.00,,---,0.00,VWS V14.01,2013-08-14 14:42:00,
2013-08-14 10:45:00,88.6,75.3,29.99,East,96,0.0,4.0,65,0.00,,---,0.00,VWS V15.00,2013-08-14 14:45:00,
2013-08-14 10:47:00,88.6,75.3,29.99,NW,317,0.0,0.0,65,0.00,,---,0.00,VWS V14.01,2013-08-14 14:47:00,
2013-08-14 10:52:00,89.7,76.4,29.99,SW,226,0.0,2.0,65,0.00,,---,0.00,VWS V14.01,2013-08-14 14:52:00,
2013-08-14 10:57:00,90.9,75.1,30.00,West,271,1.0,3.0,60,0.00,,---,0.00,VWS V14.01,2013-08-14 14:57:00,
2013-08-14 11:00:00,89.5,74.3,29.99,ENE,63,0.0,3.0,61,0.00,,---,0.00,VWS V15.00,2013-08-14 15:00:00,
2013-08-14 11:02:00,90.7,74.9,30.00,WNW,302,0.0,1.0,60,0.00,,---,0.00,VWS V14.01,2013-08-14 15:02:00,
2013-08-14 11:07:00,91.2,74.9,30.00,SSW,200,0.0,4.0,59,0.00,,---,0.00,VWS V14.01,2013-08-14 15:07:00,
2013-08-14 11:12:00,91.6,74.7,30.00,East,86,9.0,10.0,58,0.00,,---,0.00,VWS V14.01,2013-08-14 15:12:00,
2013-08-14 11:15:00,90.7,75.9,29.99,West,260,1.0,3.0,62,0.00,,---,0.00,VWS V15.00,2013-08-14 15:15:00,
2013-08-14 11:17:00,92.3,73.8,30.00,SSE,167,0.0,2.0,55,0.00,,---,0.00,VWS V14.01,2013-08-14 15:17:00,
2013-08-14 11:22:00,91.6,74.2,30.00,SE,141,3.0,6.0,57,0.00,,---,0.00,VWS V14.01,2013-08-14 15:22:00,
2013-08-14 11:27:00,91.0,73.1,30.00,South,178,4.0,7.0,56,0.00,,---,0.00,VWS V14.01,2013-08-14 15:27:00,
2013-08-14 11:30:00,89.6,75.3,29.99,WNW,291,0.0,3.0,63,0.00,,---,0.00,VWS V15.00,2013-08-14 15:30:00,
2013-08-14 11:32:00,90.7,72.9,30.00,ESE,112,2.0,5.0,56,0.00,,---,0.00,VWS V14.01,2013-08-14 15:32:00,
2013-08-14 11:37:00,90.9,73.0,30.00,SSE,164,3.0,5.0,56,0.00,,---,0.00,VWS V14.01,2013-08-14 15:37:00,
2013-08-14 11:42:00,90.8,72.9,30.00,SE,133,0.0,7.0,56,0.00,,---,0.00,VWS V14.01,2013-08-14 15:42:00,
2013-08-14 11:45:00,88.5,74.3,29.99,NW,317,0.0,3.0,63,0.00,,---,0.00,VWS V15.00,2013-08-14 15:45:00,
2013-08-14 11:48:00,90.9,75.1,30.00,NW,309,0.0,3.0,60,0.00,,---,0.00,VWS V14.01,2013-08-14 15:48:00,
2013-08-14 11:54:00,90.4,73.6,30.00,SE,132,0.0,3.0,58,0.00,,---,0.00,VWS V14.01,2013-08-14 15:54:00,
2013-08-14 11:59:00,90.4,75.6,30.00,NW,322,0.0,3.0,62,0.00,,---,0.00,VWS V14.01,2013-08-14 15:59:00,
2013-08-14 12:00:00,90.8,74.5,30.00,WNW,302,0.0,3.0,59,0.00,,---,0.00,VWS V15.00,2013-08-14 16:00:00,
2013-08-14 12:04:00,90.3,74.5,30.00,South,169,2.0,3.0,60,0.00,,---,0.00,VWS V14.01,2013-08-14 16:04:00,
2013-08-14 12:09:00,90.0,74.3,30.00,SSE,155,3.0,4.0,60,0.00,,---,0.00,VWS V14.01,2013-08-14 16:09:00,
2013-08-14 12:14:00,89.6,73.4,30.00,SE,133,4.0,6.0,59,0.00,,---,0.00,VWS V14.01,2013-08-14 16:14:00,
2013-08-14 12:15:00,92.1,74.7,30.00,SSE,160,2.0,10.0,57,0.00,,---,0.00,VWS V15.00,2013-08-14 16:15:00,
2013-08-14 12:19:00,90.1,75.8,30.00,SSE,149,2.0,5.0,63,0.00,,---,0.00,VWS V14.01,2013-08-14 16:19:00,
2013-08-14 12:24:00,90.0,74.3,30.00,SE,126,2.0,5.0,60,0.00,,---,0.00,VWS V14.01,2013-08-14 16:24:00,
2013-08-14 12:30:00,89.9,73.7,30.00,SE,134,1.0,6.0,59,0.00,,---,0.00,VWS V14.01,2013-08-14 16:30:00,
2013-08-14 12:35:00,90.0,74.8,30.00,SE,146,4.0,8.0,61,0.00,,---,0.00,VWS V14.01,2013-08-14 16:35:00,
2013-08-14 12:40:00,90.2,74.9,30.00,SE,143,7.0,10.0,61,0.00,,---,0.00,VWS V14.01,2013-08-14 16:40:00,
2013-08-14 12:45:00,90.2,74.4,30.00,SSE,155,3.0,11.0,60,0.00,,---,0.00,VWS V14.01,2013-08-14 16:45:00,
2013-08-14 12:50:00,90.7,75.4,29.99,SE,124,8.0,9.0,61,0.00,,---,0.00,VWS V14.01,2013-08-14 16:50:00,
2013-08-14 12:56:00,91.3,74.5,29.99,SE,139,3.0,9.0,58,0.00,,---,0.00,VWS V14.01,2013-08-14 16:56:00,
2013-08-14 13:00:00,90.4,75.1,30.00,West,265,0.0,3.0,61,0.00,,---,0.00,VWS V15.00,2013-08-14 17:00:00,
2013-08-14 13:01:00,91.8,74.4,29.99,South,182,2.0,9.0,57,0.00,,---,0.00,VWS V14.01,2013-08-14 17:01:00,
2013-08-14 13:07:00,92.3,73.8,29.99,ESE,118,5.0,7.0,55,0.00,,---,0.00,VWS V14.01,2013-08-14 17:07:00,
2013-08-14 13:12:00,91.8,74.4,29.99,SSE,151,3.0,9.0,57,0.00,,---,0.00,VWS V14.01,2013-08-14 17:12:00,
2013-08-14 13:15:00,89.9,73.7,30.00,South,170,2.0,6.0,59,0.00,,---,0.00,VWS V15.00,2013-08-14 17:15:00,
2013-08-14 13:17:00,91.3,75.0,29.99,ESE,110,4.0,11.0,59,0.00,,---,0.00,VWS V14.01,2013-08-14 17:17:00,
2013-08-14 13:22:00,91.4,74.0,29.99,South,178,2.0,11.0,57,0.00,,---,0.00,VWS V14.01,2013-08-14 17:22:00,
2013-08-14 13:27:00,92.5,74.5,29.99,SE,135,4.0,11.0,56,0.00,,---,0.00,VWS V14.01,2013-08-14 17:27:00,
2013-08-14 13:30:00,89.9,74.7,30.00,SSW,195,3.0,6.0,61,0.00,,---,0.00,VWS V15.00,2013-08-14 17:30:00,
2013-08-14 13:33:00,92.5,75.1,29.99,ENE,73,5.0,8.0,57,0.00,,---,0.00,VWS V14.01,2013-08-14 17:33:00,
2013-08-14 13:39:00,92.6,73.0,29.99,SE,136,6.0,8.0,53,0.00,,---,0.00,VWS V14.01,2013-08-14 17:39:00,
2013-08-14 13:44:00,92.6,73.5,29.99,ESE,112,4.0,9.0,54,0.00,,---,0.00,VWS V14.01,2013-08-14 17:44:00,
2013-08-14 13:45:00,90.3,74.5,30.00,ESE,121,4.0,11.0,60,0.00,,---,0.00,VWS V15.00,2013-08-14 17:45:00,
2013-08-14 13:49:00,91.7,74.8,29.99,South,171,6.0,10.0,58,0.00,,---,0.00,VWS V14.01,2013-08-14 17:49:00,
2013-08-14 13:54:00,91.9,74.0,29.98,SSE,148,4.0,12.0,56,0.00,,---,0.00,VWS V14.01,2013-08-14 17:54:00,
2013-08-14 13:59:00,92.1,73.6,29.98,SE,129,4.0,12.0,55,0.00,,---,0.00,VWS V14.01,2013-08-14 17:59:00,
2013-08-14 14:00:00,91.8,74.4,29.99,South,182,2.0,9.0,57,0.00,,---,0.00,VWS V15.00,2013-08-14 18:00:00,
2013-08-14 14:05:00,91.8,75.4,29.99,East,80,4.0,9.0,59,0.00,,---,0.00,VWS V14.01,2013-08-14 18:05:00,
2013-08-14 14:10:00,90.6,74.8,29.99,East,92,6.0,12.0,60,0.00,,---,0.00,VWS V14.01,2013-08-14 18:10:00,
2013-08-14 14:15:00,91.4,74.0,29.99,East,96,5.0,9.0,57,0.00,,---,0.00,VWS V15.00,2013-08-14 18:15:00,
2013-08-14 14:16:00,90.7,74.9,29.99,South,172,7.0,12.0,60,0.00,,---,0.00,VWS V14.01,2013-08-14 18:16:00,
2013-08-14 14:22:00,91.4,75.1,29.99,SSE,167,5.0,10.0,59,0.00,,---,0.00,VWS V14.01,2013-08-14 18:22:00,
2013-08-14 14:27:00,91.3,73.9,29.98,SE,129,8.0,11.0,57,0.00,,---,0.00,VWS V14.01,2013-08-14 18:27:00,
2013-08-14 14:30:00,92.7,73.6,29.99,South,171,5.0,11.0,54,0.00,,---,0.00,VWS V15.00,2013-08-14 18:30:00,
2013-08-14 14:33:00,91.2,74.9,29.98,SE,134,2.0,5.0,59,0.00,,---,0.00,VWS V14.01,2013-08-14 18:33:00,
2013-08-14 14:38:00,91.6,74.7,29.98,SE,127,2.0,11.0,58,0.00,,---,0.00,VWS V14.01,2013-08-14 18:38:00,
2013-08-14 14:43:00,92.3,75.4,29.98,SSE,155,5.0,11.0,58,0.00,,---,0.00,VWS V14.01,2013-08-14 18:43:00,
2013-08-14 14:45:00,92.3,73.3,29.99,East,99,2.0,10.0,54,0.00,,---,0.00,VWS V15.00,2013-08-14 18:45:00,
2013-08-14 14:49:00,91.8,74.9,29.97,SSW,206,9.0,10.0,58,0.00,,---,0.00,VWS V14.01,2013-08-14 18:49:00,
2013-08-14 14:54:00,91.6,74.7,29.97,ESE,107,3.0,12.0,58,0.00,,---,0.00,VWS V14.01,2013-08-14 18:54:00,
2013-08-14 14:59:00,91.4,74.0,29.97,South,176,5.0,12.0,57,0.00,,---,0.00,VWS V14.01,2013-08-14 18:59:00,
2013-08-14 15:00:00,92.1,75.2,29.98,SE,140,5.0,12.0,58,0.00,,---,0.00,VWS V15.00,2013-08-14 19:00:00,
2013-08-14 15:05:00,91.9,75.0,29.97,SE,145,10.0,10.0,58,0.00,,---,0.00,VWS V14.01,2013-08-14 19:05:00,
2013-08-14 15:12:00,91.4,74.0,29.96,ESE,115,6.0,13.0,57,0.00,,---,0.00,VWS V14.01,2013-08-14 19:12:00,
2013-08-14 15:15:00,90.8,74.0,29.99,South,177,7.0,12.0,58,0.00,,---,0.00,VWS V15.00,2013-08-14 19:15:00,
2013-08-14 15:17:00,91.7,73.2,29.96,SE,125,4.0,8.0,55,0.00,,---,0.00,VWS V14.01,2013-08-14 19:17:00,
2013-08-14 15:24:00,91.5,73.6,29.96,East,87,3.0,11.0,56,0.00,,---,0.00,VWS V14.01,2013-08-14 19:24:00,
2013-08-14 15:29:00,91.2,73.8,29.96,East,96,12.0,12.0,57,0.00,,---,0.00,VWS V14.01,2013-08-14 19:29:00,
2013-08-14 15:30:00,91.2,74.4,29.98,East,99,2.0,11.0,58,0.00,,---,0.00,VWS V15.00,2013-08-14 19:30:00,
2013-08-14 15:35:00,91.4,73.5,29.96,SW,226,5.0,11.0,56,0.00,,---,0.00,VWS V14.01,2013-08-14 19:35:00,
2013-08-14 15:40:00,91.9,74.5,29.96,ESE,113,6.0,11.0,57,0.00,,---,0.00,VWS V14.01,2013-08-14 19:40:00,
2013-08-14 15:45:00,91.7,72.7,29.96,East,98,10.0,11.0,54,0.00,,---,0.00,VWS V14.01,2013-08-14 19:45:00,
2013-08-14 15:50:00,91.3,72.9,29.96,SE,130,5.0,9.0,55,0.00,,---,0.00,VWS V14.01,2013-08-14 19:50:00,
2013-08-14 15:56:00,91.8,74.4,29.96,SSE,158,7.0,10.0,57,0.00,,---,0.00,VWS V14.01,2013-08-14 19:56:00,
2013-08-14 16:00:00,91.8,73.3,29.96,SSE,162,4.0,12.0,55,0.00,,---,0.00,VWS V15.00,2013-08-14 20:00:00,
2013-08-14 16:01:00,91.6,73.7,29.96,SSW,198,6.0,12.0,56,0.00,,---,0.00,VWS V14.01,2013-08-14 20:01:00,
2013-08-14 16:07:00,91.5,75.7,29.96,SSE,162,7.0,11.0,60,0.00,,---,0.00,VWS V14.01,2013-08-14 20:07:00,
2013-08-14 16:12:00,91.6,75.2,29.95,SSE,151,5.0,11.0,59,0.00,,---,0.00,VWS V14.01,2013-08-14 20:12:00,
2013-08-14 16:15:00,91.7,73.2,29.96,SSE,159,7.0,13.0,55,0.00,,---,0.00,VWS V15.00,2013-08-14 20:15:00,
2013-08-14 16:17:00,91.6,74.7,29.95,SSE,147,3.0,7.0,58,0.00,,---,0.00,VWS V14.01,2013-08-14 20:17:00,
2013-08-14 16:23:00,91.7,73.8,29.95,SE,129,2.0,9.0,56,0.00,,---,0.00,VWS V14.01,2013-08-14 20:23:00,
2013-08-14 16:28:00,91.6,74.2,29.95,SE,143,4.0,9.0,57,0.00,,---,0.00,VWS V14.01,2013-08-14 20:28:00,
2013-08-14 16:30:00,91.2,74.4,29.96,ESE,116,7.0,12.0,58,0.00,,---,0.00,VWS V15.00,2013-08-14 20:30:00,
2013-08-14 16:33:00,91.7,74.8,29.95,SE,127,8.0,9.0,58,0.00,,---,0.00,VWS V14.01,2013-08-14 20:33:00,
2013-08-14 16:39:00,91.1,73.8,29.95,SSE,153,2.0,10.0,57,0.00,,---,0.00,VWS V14.01,2013-08-14 20:39:00,
2013-08-14 16:44:00,91.0,73.1,29.95,South,172,10.0,11.0,56,0.00,,---,0.00,VWS V14.01,2013-08-14 20:44:00,
2013-08-14 16:45:00,91.4,73.0,29.96,ESE,121,8.0,13.0,55,0.00,,---,0.00,VWS V15.00,2013-08-14 20:45:00,
2013-08-14 16:50:00,90.8,73.5,29.95,SE,139,7.0,13.0,57,0.00,,---,0.00,VWS V14.01,2013-08-14 20:50:00,
2013-08-14 16:55:00,90.9,73.6,29.95,South,169,9.0,13.0,57,0.00,,---,0.00,VWS V14.01,2013-08-14 20:55:00,
2013-08-14 17:00:00,91.0,73.1,29.95,SE,126,4.0,13.0,56,0.00,,---,0.00,VWS V14.01,2013-08-14 21:00:00,
2013-08-14 17:05:00,90.9,72.5,29.95,SSW,209,5.0,10.0,55,0.00,,---,0.00,VWS V14.01,2013-08-14 21:05:00,
2013-08-14 17:10:00,90.9,73.6,29.95,SE,129,9.0,10.0,57,0.00,,---,0.00,VWS V14.01,2013-08-14 21:10:00,
2013-08-14 17:15:00,91.6,74.2,29.95,ESE,103,7.0,11.0,57,0.00,,---,0.00,VWS V15.00,2013-08-14 21:15:00,
2013-08-14 17:16:00,91.1,73.2,29.95,ESE,122,8.0,11.0,56,0.00,,---,0.00,VWS V14.01,2013-08-14 21:16:00,
2013-08-14 17:21:00,90.7,71.8,29.95,SSW,196,5.0,11.0,54,0.00,,---,0.00,VWS V14.01,2013-08-14 21:21:00,
2013-08-14 17:26:00,90.7,72.3,29.94,South,169,5.0,11.0,55,0.00,,---,0.00,VWS V14.01,2013-08-14 21:26:00,
2013-08-14 17:30:00,91.8,75.4,29.95,South,177,4.0,9.0,59,0.00,,---,0.00,VWS V15.00,2013-08-14 21:30:00,
2013-08-14 17:31:00,90.6,73.3,29.94,SSE,153,5.0,11.0,57,0.00,,---,0.00,VWS V14.01,2013-08-14 21:31:00,
2013-08-14 17:36:00,90.2,72.9,29.94,ESE,119,5.0,8.0,57,0.00,,---,0.00,VWS V14.01,2013-08-14 21:36:00,
2013-08-14 17:41:00,89.6,72.9,29.93,SE,139,8.0,8.0,58,0.00,,---,0.00,VWS V14.01,2013-08-14 21:41:00,
2013-08-14 17:45:00,91.0,73.7,29.95,ESE,110,4.0,11.0,57,0.00,,---,0.00,VWS V15.00,2013-08-14 21:45:00,
2013-08-14 17:46:00,88.9,72.7,29.94,South,179,5.0,9.0,59,0.00,,---,0.00,VWS V14.01,2013-08-14 21:46:00,
2013-08-14 17:51:00,88.8,72.1,29.94,SSE,149,5.0,6.0,58,0.00,,---,0.00,VWS V14.01,2013-08-14 21:51:00,
2013-08-14 17:56:00,88.6,71.9,29.94,ESE,117,2.0,8.0,58,0.00,,---,0.00,VWS V14.01,2013-08-14 21:56:00,
2013-08-14 18:00:00,91.0,73.7,29.95,ESE,116,4.0,13.0,57,0.00,,---,0.00,VWS V15.00,2013-08-14 22:00:00,
2013-08-14 18:02:00,88.4,72.3,29.94,SSW,203,5.0,7.0,59,0.00,,---,0.00,VWS V14.01,2013-08-14 22:02:00,
2013-08-14 18:07:00,88.2,71.6,29.94,SE,144,4.0,9.0,58,0.00,,---,0.00,VWS V14.01,2013-08-14 22:07:00,
2013-08-14 18:12:00,88.1,72.0,29.94,ESE,107,3.0,9.0,59,0.00,,---,0.00,VWS V14.01,2013-08-14 22:12:00,
2013-08-14 18:15:00,91.1,73.2,29.95,SE,128,6.0,11.0,56,0.00,,---,0.00,VWS V15.00,2013-08-14 22:15:00,
2013-08-14 18:17:00,88.0,71.4,29.94,East,93,2.0,10.0,58,0.00,,---,0.00,VWS V14.01,2013-08-14 22:17:00,
2013-08-14 18:22:00,87.9,72.3,29.94,ESE,117,6.0,11.0,60,0.00,,---,0.00,VWS V14.01,2013-08-14 22:22:00,
2013-08-14 18:27:00,87.8,72.7,29.95,South,176,4.0,11.0,61,0.00,,---,0.00,VWS V14.01,2013-08-14 22:27:00,
2013-08-14 18:30:00,90.6,73.3,29.94,SE,138,4.0,11.0,57,0.00,,---,0.00,VWS V15.00,2013-08-14 22:30:00,
2013-08-14 18:32:00,87.9,73.3,29.95,ESE,123,3.0,5.0,62,0.00,,---,0.00,VWS V14.01,2013-08-14 22:32:00,
2013-08-14 18:37:00,87.4,73.3,29.95,SSE,151,5.0,8.0,63,0.00,,---,0.00,VWS V14.01,2013-08-14 22:37:00,
2013-08-14 18:42:00,87.1,73.4,29.95,SE,146,4.0,9.0,64,0.00,,---,0.00,VWS V14.01,2013-08-14 22:42:00,
2013-08-14 18:45:00,88.9,72.7,29.94,South,179,5.0,9.0,59,0.00,,---,0.00,VWS V15.00,2013-08-14 22:45:00,
2013-08-14 18:48:00,86.8,73.6,29.95,SSE,160,7.0,8.0,65,0.00,,---,0.00,VWS V14.01,2013-08-14 22:48:00,
2013-08-14 18:53:00,86.8,74.1,29.95,SE,144,2.0,10.0,66,0.00,,---,0.00,VWS V14.01,2013-08-14 22:53:00,
2013-08-14 18:58:00,86.5,73.8,29.96,SSE,162,6.0,10.0,66,0.00,,---,0.00,VWS V14.01,2013-08-14 22:58:00,
2013-08-14 19:00:00,88.4,71.8,29.94,SSE,162,6.0,8.0,58,0.00,,---,0.00,VWS V15.00,2013-08-14 23:00:00,
2013-08-14 19:05:00,86.5,73.3,29.95,SSE,153,5.0,8.0,65,0.00,,---,0.00,VWS V14.01,2013-08-14 23:05:00,
2013-08-14 19:11:00,86.2,73.5,29.95,SSE,158,2.0,8.0,66,0.00,,---,0.00,VWS V14.01,2013-08-14 23:11:00,
2013-08-14 19:15:00,88.0,70.9,29.94,South,181,10.0,10.0,57,0.00,,---,0.00,VWS V15.00,2013-08-14 23:15:00,
2013-08-14 19:16:00,86.2,73.5,29.95,SE,133,2.0,8.0,66,0.00,,---,0.00,VWS V14.01,2013-08-14 23:16:00,
2013-08-14 19:21:00,86.1,73.4,29.96,ENE,67,9.0,9.0,66,0.00,,---,0.00,VWS V14.01,2013-08-14 23:21:00,
2013-08-14 19:26:00,85.9,73.7,29.97,SE,143,3.0,9.0,67,0.00,,---,0.00,VWS V14.01,2013-08-14 23:26:00,
2013-08-14 19:30:00,87.9,72.8,29.95,SE,143,3.0,11.0,61,0.00,,---,0.00,VWS V15.00,2013-08-14 23:30:00,
2013-08-14 19:31:00,85.7,73.9,29.97,SE,130,6.0,9.0,68,0.00,,---,0.00,VWS V14.01,2013-08-14 23:31:00,
2013-08-14 19:36:00,85.8,73.6,29.97,SSE,167,8.0,8.0,67,0.00,,---,0.00,VWS V14.01,2013-08-14 23:36:00,
2013-08-14 19:41:00,85.7,73.0,29.97,SE,127,2.0,9.0,66,0.00,,---,0.00,VWS V14.01,2013-08-14 23:41:00,
2013-08-14 19:45:00,86.9,73.7,29.95,SSE,168,3.0,9.0,65,0.00,,---,0.00,VWS V15.00,2013-08-14 23:45:00,
2013-08-14 19:46:00,85.6,73.8,29.97,SE,141,1.0,9.0,68,0.00,,---,0.00,VWS V14.01,2013-08-14 23:46:00,
2013-08-14 19:51:00,85.4,74.1,29.98,SSE,148,5.0,9.0,69,0.00,,---,0.00,VWS V14.01,2013-08-14 23:51:00,
2013-08-14 19:56:00,85.3,74.8,29.98,SSE,150,2.0,9.0,71,0.00,,---,0.00,VWS V14.01,2013-08-14 23:56:00,
2013-08-14 20:00:00,86.5,73.8,29.96,SSE,150,4.0,10.0,66,0.00,,---,0.00,VWS V15.00,2013-08-15 00:00:00,
2013-08-14 20:01:00,85.1,74.6,29.97,SSE,153,4.0,4.0,71,0.00,,---,0.00,VWS V14.01,2013-08-15 00:01:00,
2013-08-14 20:06:00,85.0,74.6,29.97,SE,134,1.0,6.0,71,0.00,,---,0.00,VWS V14.01,2013-08-15 00:06:00,
2013-08-14 20:11:00,84.8,74.4,29.97,South,183,4.0,6.0,71,0.00,,---,0.00,VWS V14.01,2013-08-15 00:11:00,
2013-08-14 20:15:00,86.2,73.5,29.95,ESE,106,4.0,8.0,66,0.00,,---,0.00,VWS V15.00,2013-08-15 00:15:00,
2013-08-14 20:16:00,84.7,74.7,29.97,ESE,116,1.0,1.0,72,0.00,,---,0.00,VWS V14.01,2013-08-15 00:16:00,
2013-08-14 20:21:00,84.7,74.7,29.97,South,187,2.0,5.0,72,0.00,,---,0.00,VWS V14.01,2013-08-15 00:21:00,
2013-08-14 20:26:00,84.6,74.6,29.97,SSE,160,4.0,5.0,72,0.00,,---,0.00,VWS V14.01,2013-08-15 00:26:00,
2013-08-14 20:30:00,85.7,73.9,29.97,ESE,122,3.0,9.0,68,0.00,,---,0.00,VWS V15.00,2013-08-15 00:30:00,
2013-08-14 20:31:00,84.6,74.6,29.98,SSE,155,4.0,4.0,72,0.00,,---,0.00,VWS V14.01,2013-08-15 00:31:00,
2013-08-14 20:37:00,84.6,74.6,29.98,SE,133,2.0,4.0,72,0.00,,---,0.00,VWS V14.01,2013-08-15 00:37:00,
2013-08-14 20:42:00,84.5,74.9,29.98,SSE,148,2.0,5.0,73,0.00,,---,0.00,VWS V14.01,2013-08-15 00:42:00,
2013-08-14 20:45:00,85.6,73.8,29.97,SE,141,1.0,9.0,68,0.00,,---,0.00,VWS V15.00,2013-08-15 00:45:00,
2013-08-14 20:47:00,84.4,74.8,29.99,SE,126,1.0,2.0,73,0.00,,---,0.00,VWS V14.01,2013-08-15 00:47:00,
2013-08-14 20:52:00,84.4,75.2,29.99,ESE,113,3.0,5.0,74,0.00,,---,0.00,VWS V14.01,2013-08-15 00:52:00,
2013-08-14 20:57:00,84.4,75.2,29.99,ESE,116,2.0,7.0,74,0.00,,---,0.00,VWS V14.01,2013-08-15 00:57:00,
2013-08-14 21:00:00,85.1,74.6,29.97,SE,126,3.0,9.0,71,0.00,,---,0.00,VWS V15.00,2013-08-15 01:00:00,
2013-08-14 21:02:00,84.3,75.5,29.99,SSE,155,1.0,4.0,75,0.00,,---,0.00,VWS V14.01,2013-08-15 01:02:00,
2013-08-14 21:07:00,84.2,75.4,29.99,SSE,156,4.0,7.0,75,0.00,,---,0.00,VWS V14.01,2013-08-15 01:07:00,
2013-08-14 21:12:00,84.2,75.4,29.99,ESE,111,3.0,8.0,75,0.00,,---,0.00,VWS V14.01,2013-08-15 01:12:00,
2013-08-14 21:15:00,84.2,75.4,29.99,SSE,148,4.0,8.0,75,0.00,,---,0.00,VWS V14.01,2013-08-15 01:15:00,
2013-08-14 21:20:00,84.2,75.4,30.00,SE,131,4.0,8.0,75,0.00,,---,0.00,VWS V14.01,2013-08-15 01:20:00,
2013-08-14 21:25:00,84.1,75.3,30.00,SSE,162,5.0,8.0,75,0.00,,---,0.00,VWS V14.01,2013-08-15 01:25:00,
2013-08-14 21:30:00,84.2,75.4,30.01,SE,130,2.0,8.0,75,0.00,,---,0.00,VWS V14.01,2013-08-15 01:30:00,
2013-08-14 21:35:00,84.2,75.4,30.01,ESE,122,2.0,8.0,75,0.00,,---,0.00,VWS V14.01,2013-08-15 01:35:00,
2013-08-14 21:40:00,84.1,75.3,30.01,SSW,198,2.0,8.0,75,0.00,,---,0.00,VWS V14.01,2013-08-15 01:40:00,
2013-08-14 21:45:00,84.2,75.4,30.02,SE,141,2.0,8.0,75,0.00,,---,0.00,VWS V14.01,2013-08-15 01:45:00,
2013-08-14 21:50:00,84.2,75.4,30.02,SE,134,3.0,6.0,75,0.00,,---,0.00,VWS V14.01,2013-08-15 01:50:00,
2013-08-14 21:55:00,84.2,75.4,30.02,SE,135,2.0,6.0,75,0.00,,---,0.00,VWS V14.01,2013-08-15 01:55:00,
2013-08-14 22:00:00,84.2,75.4,30.02,East,89,4.0,10.0,75,0.00,,---,0.00,VWS V14.01,2013-08-15 02:00:00,
2013-08-14 22:05:00,84.2,75.4,30.02,SE,126,1.0,7.0,75,0.00,,---,0.00,VWS V14.01,2013-08-15 02:05:00,
2013-08-14 22:10:00,84.2,75.4,30.02,SSE,160,4.0,7.0,75,0.00,,---,0.00,VWS V14.01,2013-08-15 02:10:00,
2013-08-14 22:15:00,84.2,75.4,30.02,ESE,107,7.0,12.0,75,0.00,,---,0.00,VWS V14.01,2013-08-15 02:15:00,
2013-08-14 22:20:00,83.9,76.3,30.03,South,176,6.0,12.0,78,0.00,,---,0.00,VWS V14.01,2013-08-15 02:20:00,
2013-08-14 22:25:00,83.5,76.7,30.03,SE,126,4.0,12.0,80,0.00,,---,0.00,VWS V14.01,2013-08-15 02:25:00,
2013-08-14 22:30:00,84.2,75.4,30.01,SSE,149,4.0,8.0,75,0.00,,---,0.00,VWS V15.00,2013-08-15 02:30:00,
2013-08-14 22:31:00,83.2,76.8,30.02,ESE,118,4.0,12.0,81,0.00,,---,0.00,VWS V14.01,2013-08-15 02:31:00,
2013-08-14 22:36:00,83.0,76.2,30.03,SSE,168,4.0,8.0,80,0.00,,---,0.00,VWS V14.01,2013-08-15 02:36:00,
2013-08-14 22:41:00,83.0,76.2,30.02,SSE,156,7.0,8.0,80,0.00,,---,0.00,VWS V14.01,2013-08-15 02:41:00,
2013-08-14 22:45:00,84.2,75.4,30.02,SE,134,5.0,8.0,75,0.00,,---,0.00,VWS V15.00,2013-08-15 02:45:00,
2013-08-14 22:46:00,82.9,76.1,30.02,South,187,2.0,8.0,80,0.00,,---,0.00,VWS V14.01,2013-08-15 02:46:00,
2013-08-14 22:51:00,82.9,75.7,30.03,SSE,158,6.0,6.0,79,0.00,,---,0.00,VWS V14.01,2013-08-15 02:51:00,
2013-08-14 22:56:00,82.8,75.6,30.02,SSE,154,3.0,9.0,79,0.00,,---,0.00,VWS V14.01,2013-08-15 02:56:00,
2013-08-14 23:00:00,84.2,75.4,30.02,SSE,165,7.0,10.0,75,0.00,,---,0.00,VWS V15.00,2013-08-15 03:00:00,
2013-08-14 23:01:00,82.8,75.2,30.02,SE,141,2.0,9.0,78,0.00,,---,0.00,VWS V14.01,2013-08-15 03:01:00,
2013-08-14 23:06:00,82.7,75.2,30.02,SE,143,7.0,9.0,78,0.00,,---,0.00,VWS V14.01,2013-08-15 03:06:00,
2013-08-14 23:11:00,82.7,75.5,30.03,South,179,1.0,9.0,79,0.00,,---,0.00,VWS V14.01,2013-08-15 03:11:00,
2013-08-14 23:15:00,84.2,75.8,30.02,ESE,121,10.0,12.0,76,0.00,,---,0.00,VWS V15.00,2013-08-15 03:15:00,
2013-08-14 23:16:00,82.6,75.4,30.03,SE,143,4.0,9.0,79,0.00,,---,0.00,VWS V14.01,2013-08-15 03:16:00,
2013-08-14 23:21:00,82.5,75.3,30.03,SSE,149,2.0,6.0,79,0.00,,---,0.00,VWS V14.01,2013-08-15 03:21:00,
2013-08-14 23:26:00,82.5,75.3,30.03,SSE,153,2.0,6.0,79,0.00,,---,0.00,VWS V14.01,2013-08-15 03:26:00,
2013-08-14 23:30:00,83.2,76.8,30.02,SSE,164,2.0,12.0,81,0.00,,---,0.00,VWS V15.00,2013-08-15 03:30:00,
2013-08-14 23:31:00,82.5,75.3,30.03,SSE,150,2.0,6.0,79,0.00,,---,0.00,VWS V14.01,2013-08-15 03:31:00,
2013-08-14 23:36:00,82.4,75.2,30.03,SSE,156,1.0,4.0,79,0.00,,---,0.00,VWS V14.01,2013-08-15 03:36:00,
2013-08-14 23:41:00,82.3,75.1,30.03,ESE,107,1.0,4.0,79,0.00,,---,0.00,VWS V14.01,2013-08-15 03:41:00,
2013-08-14 23:45:00,82.9,76.1,30.02,SSE,160,4.0,8.0,80,0.00,,---,0.00,VWS V15.00,2013-08-15 03:45:00,
2013-08-14 23:46:00,82.3,75.1,30.03,SE,131,1.0,1.0,79,0.00,,---,0.00,VWS V14.01,2013-08-15 03:46:00,
2013-08-14 23:51:00,82.3,74.8,30.03,ESE,106,2.0,5.0,78,0.00,,---,0.00,VWS V14.01,2013-08-15 03:51:00,
2013-08-14 23:56:00,82.3,74.8,30.03,SE,136,1.0,5.0,78,0.00,,---,0.00,VWS V14.01,2013-08-15 03:56:00,